Location: Palomar Mountain Lodge
(33.3110°N, 116.8495°W)
Time: 01:50:08
(UTC-08:00)

Terra - Pass Details

Date: 12 July 2018
Orbit: 702 x 703 km, 98.2° (Epoch: 18 November)

Event Time Altitude Azimuth Distance (km) Brightness Sun altitude
Exits shadow 23:51:30 20° 287° (WNW) 1,597 3.9 -32.9°
Drops below altitude 10° 23:53:54 10° 315° (NW) 2,167 5.0 -33.1°
Sets 23:56:37 0° 331° (NNW) 3,090 6.2 -33.2°
